This is the latest recevied weather packets stored in our database for station/object F5MAP-5. If no packets are shown the sender has not sent any weather packets the latest 10 day(s).
| Time | Temp. | Humidity | Pressure | Rain* | Wind** | Luminosity | Snow |
|---|---|---|---|---|---|---|---|
| 1787946133 | 20° C | 65% | 1015 hPa | 0 mm | - | 0 W/m² | - |
| 1787945533 | 20.56° C | 65% | 1014.9 hPa | 0 mm | - | 0 W/m² | - |
| 1787944933 | 20.56° C | 65% | 1014.8 hPa | 0 mm | - | 0 W/m² | - |
| 1787944333 | 21.11° C | 65% | 1014.7 hPa | 0 mm | - | 0 W/m² | - |
| 1787943732 | 21.11° C | 63% | 1014.6 hPa | 0 mm | - | 0 W/m² | - |
| 1787943133 | 21.67° C | 62% | 1014.6 hPa | 0 mm | - | 0 W/m² | - |
| 1787942533 | 21.67° C | 60% | 1014.5 hPa | 0 mm | - | 0 W/m² | - |
| 1787941933 | 22.22° C | 60% | 1014.3 hPa | 0 mm | - | 0 W/m² | - |
| 1787941333 | 22.22° C | 57% | 1014.1 hPa | 0 mm | - | 0 W/m² | - |
| 1787940733 | 22.78° C | 56% | 1014 hPa | 0 mm | - | 0 W/m² | - |
| 1787940133 | 22.78° C | 56% | 1014 hPa | 0 mm | - | 7 W/m² | - |
| 1787939533 | 23.33° C | 55% | 1013.7 hPa | 0 mm | - | 14 W/m² | - |
| 1787938933 | 23.33° C | 54% | 1013.7 hPa | 0 mm | - | 18 W/m² | - |
| 1787938333 | 23.33° C | 53% | 1013.7 hPa | 0 mm | - | 30 W/m² | - |
| 1787937732 | 23.89° C | 54% | 1013.6 hPa | 0 mm | - | 26 W/m² | - |
| 1787937133 | 23.89° C | 54% | 1013.5 hPa | 0 mm | - | 28 W/m² | - |
| 1787936533 | 23.89° C | 54% | 1013.5 hPa | 0 mm | - | 46 W/m² | - |
| 1787935933 | 23.89° C | 54% | 1013.6 hPa | 0 mm | - | 37 W/m² | - |
| 1787935333 | 24.44° C | 54% | 1013.5 hPa | 0 mm | - | 83 W/m² | - |
| 1787934732 | 24.44° C | 53% | 1013.4 hPa | 0 mm | - | 90 W/m² | - |
| 1787934133 | 24.44° C | 54% | 1013.3 hPa | 0 mm | - | 93 W/m² | - |
| 1787933532 | 24.44° C | 52% | 1013.3 hPa | 0 mm | - | 98 W/m² | - |
| 1787932933 | 24.44° C | 52% | 1013.3 hPa | 0 mm | - | 88 W/m² | - |
| 1787932332 | 24.44° C | 53% | 1013.3 hPa | 0 mm | - | 113 W/m² | - |
| 1787931732 | 24.44° C | 52% | 1013.3 hPa | 0 mm | - | 113 W/m² | - |
* Rain latest hour (hover to see other rain measurements)
** Current wind speed in m/s (hover to see current wind gust speed)